Location: Dillon
(41.1766°N, 107.0923°W)
Time: 13:38:49
(UTC+00:00)

SJ-7 - Pass Details

Date: 13 December 2022
Orbit: 549 x 592 km, 97.7° (Epoch: 05 February)

Event Time Altitude Azimuth Distance (km) Brightness Sun altitude
Rises 00:47:13 0° 194° (SSW) 2,740 8.4 -12.3°
Reaches altitude 10° 00:49:39 10° 208° (SSW) 1,842 7.7 -12.7°
Maximum altitude 00:52:58 25° 264° (W) 1,141 6.8 -13.3°
Drops below altitude 10° 00:56:17 10° 321° (NW) 1,838 7.2 -13.9°
Sets 00:58:42 0° 335° (NNW) 2,734 8.0 -14.3°
